Location: Kergrach
(48.3833°N, 4.5167°W)
Time: 15:25:33
(UTC+00:00)

STARLINK-1173 - Pass Details

Date: 18 February 2020
Orbit: 379 x 380 km, 53.0° (Epoch: 08 April)

Event Time Altitude Azimuth Distance (km) Brightness Sun altitude
Exits shadow 05:40:36 30° 337° (NNW) 713 4.0 -17.3°
Maximum altitude 05:41:13 33° 3° (N) 663 4.0 -17.2°
Drops below altitude 10° 05:44:06 10° 71° (ENE) 1,403 6.8 -16.7°
Sets 05:46:17 0° 81° (E) 2,255 8.5 -16.4°
